Weather History for Alabaster, AL

Change the Weather History Date:

Monday, September 16, 2013

  Actual Average Record
Temperature  
Mean Temperature 79 °F 74 °F  
Max Temperature 91 °F 85 °F 100 °F (1980)
Min Temperature 67 °F 64 °F 43 °F (1961)
Degree Days  
Heating Degree Days 0 0  
Month to date heating degree days 0 0  
Since 1 July heating degree days 0 0  
Cooling Degree Days 14 10  
Month to date cooling degree days 237 186  
Year to date cooling degree days 1726 1784  
Growing Degree Days 28 (Base 50)    
Moisture  
Dew Point 63 °F    
Average Humidity 64    
Maximum Humidity 93    
Minimum Humidity 34    
Precipitation  
Precipitation 0.00 in 0.12 in 1.98 in (2004)
Month to date precipitation 0.27 2.13  
Year to date precipitation 48.56 40.21  
Sea Level Pressure  
Sea Level Pressure 30.10 in    
Wind  
Wind Speed 1 mph (NE)    
Max Wind Speed 9 mph    
Max Gust Speed 14 mph    
Visibility 10 miles    
Events      
T = Trace of Precipitation, MM = Missing Value Source: NWS Daily Summary

Daily Weather History Graph

Daily Weather History Graph

Search for Another Location

Airport:

Trip Planner

Search our weather history database for the weather conditions in past years. The results will help you decide how hot, cold, wet, or windy it might be!

Date:

Astronomy

Sep. 16, 2013 Rise Set
Actual Time 6:31 AM CDT 6:51 PM CDT
Civil Twilight 6:06 AM CDT 7:16 PM CDT
Nautical Twilight 5:37 AM CDT 7:45 PM CDT
Astronomical Twilight 5:08 AM CDT 8:14 PM CDT
Moon 4:54 PM CDT (9/16) 3:24 AM CDT (9/16)
Length of Visible Light 13h 09m
Length of Day
12h 20m
Waxing Gibbous, 90% of the Moon is Illuminated
Sep 16
Waxing Gibbous
Sep 19
Full
Sep 26
Last Quarter
Oct 4
New
Oct 11
First Quarter

Hourly Weather History & Observations

Time (CDT) Temp. Heat Index Dew Point Humidity Pressure Visibility Wind Dir Wind Speed Gust Speed Precip Events Conditions
12:53 AM 69.1 °F - 64.0 °F 84% 30.10 in 10.0 mi Calm Calm - N/A   Clear
1:53 AM 68.0 °F - 64.0 °F 87% 30.10 in 10.0 mi Calm Calm - N/A   Clear
2:53 AM 68.0 °F - 64.0 °F 87% 30.09 in 10.0 mi Calm Calm - N/A   Clear
3:53 AM 68.0 °F - 63.0 °F 84% 30.09 in 9.0 mi Calm Calm - N/A   Clear
4:53 AM 66.9 °F - 64.0 °F 90% 30.09 in 9.0 mi Calm Calm - N/A   Clear
5:53 AM 68.0 °F - 64.9 °F 90% 30.10 in 7.0 mi Calm Calm - 0.01 in   Clear
6:53 AM 68.0 °F - 64.9 °F 90% 30.12 in 7.0 mi Calm Calm - N/A   Partly Cloudy
7:53 AM 73.0 °F - 66.9 °F 81% 30.13 in 8.0 mi Calm Calm - N/A   Mostly Cloudy
8:53 AM 75.9 °F - 68.0 °F 76% 30.14 in 8.0 mi Calm Calm - N/A   Clear
9:53 AM 81.0 °F 84.1 °F 69.1 °F 67% 30.14 in 9.0 mi Calm Calm - N/A   Clear
10:53 AM 84.9 °F 86.6 °F 64.9 °F 51% 30.14 in 10.0 mi Calm Calm - N/A   Clear
11:53 AM 88.0 °F 87.1 °F 59.0 °F 37% 30.13 in 10.0 mi Variable 3.5 mph - N/A   Clear
12:53 PM 89.1 °F 88.2 °F 59.0 °F 36% 30.11 in 10.0 mi NNE 3.5 mph - N/A   Clear
1:53 PM 89.1 °F 88.2 °F 59.0 °F 36% 30.09 in 10.0 mi Variable 3.5 mph - N/A   Clear
2:53 PM 91.0 °F 90.2 °F 59.0 °F 34% 30.07 in 10.0 mi Variable 5.8 mph - N/A   Clear
3:53 PM 91.0 °F 90.2 °F 59.0 °F 34% 30.05 in 10.0 mi ENE 5.8 mph - N/A   Clear
4:53 PM 90.0 °F 90.0 °F 61.0 °F 38% 30.04 in 10.0 mi Variable 3.5 mph - N/A   Clear
5:53 PM 88.0 °F 87.6 °F 60.1 °F 39% 30.05 in 10.0 mi Calm Calm - N/A   Clear
6:53 PM 82.0 °F 83.0 °F 62.1 °F 51% 30.05 in 10.0 mi Calm Calm - N/A   Clear
7:53 PM 79.0 °F - 63.0 °F 58% 30.07 in 10.0 mi Calm Calm - N/A   Clear
8:53 PM 78.1 °F - 61.0 °F 56% 30.09 in 10.0 mi Calm Calm - N/A   Clear
9:53 PM 72.0 °F - 64.9 °F 78% 30.10 in 10.0 mi Calm Calm - N/A   Clear
10:53 PM 70.0 °F - 64.9 °F 84% 30.10 in 10.0 mi Calm Calm - N/A   Clear
11:53 PM 68.0 °F - 64.0 °F 87% 30.10 in 10.0 mi Calm Calm - N/A   Clear